Time,TemperatureF,DewpointF,PressureIn,WindDirection,WindDirectionDegrees,WindSpeedMPH,WindSpeedGustMPH,Humidity,HourlyPrecipIn,Conditions,Clouds,dailyrainin,SoftwareType,DateUTC
2013-07-11 00:00:00,51.1,46.1,30.03,NNW,338,2.5,2.5,83,0.00,,---,0.00,VWS V14.01,2013-07-11 07:00:00,
2013-07-11 00:05:00,50.9,46.2,30.03,NNW,338,2.7,3.1,84,0.00,,---,0.00,VWS V14.01,2013-07-11 07:05:00,
2013-07-11 00:10:00,50.9,46.2,30.03,NW,315,2.7,2.7,84,0.00,,---,0.00,VWS V14.01,2013-07-11 07:10:00,
2013-07-11 00:16:00,50.7,46.1,30.03,WNW,292,3.1,3.1,84,0.00,,---,0.00,VWS V14.01,2013-07-11 07:16:00,
2013-07-11 00:20:00,50.7,46.1,30.03,NW,315,0.0,3.1,84,0.00,,---,0.00,VWS V14.01,2013-07-11 07:20:00,
2013-07-11 00:21:00,50.7,46.1,30.03,NW,315,0.0,0.0,84,0.00,,---,0.00,VWS V14.01,2013-07-11 07:21:00,
2013-07-11 00:26:00,50.7,46.4,30.03,NW,315,0.0,2.5,85,0.00,,---,0.00,VWS V14.01,2013-07-11 07:26:00,
2013-07-11 00:30:00,50.7,46.4,30.03,NNW,338,0.0,2.5,85,0.00,,---,0.00,VWS V14.01,2013-07-11 07:30:00,
2013-07-11 00:31:00,50.7,46.4,30.03,NNW,338,0.0,0.0,85,0.00,,---,0.00,VWS V14.01,2013-07-11 07:31:00,
2013-07-11 00:36:00,50.7,46.4,30.03,WNW,292,1.6,3.1,85,0.00,,---,0.00,VWS V14.01,2013-07-11 07:36:00,
2013-07-11 00:40:00,50.7,46.4,30.03,WNW,292,0.0,3.1,85,0.00,,---,0.00,VWS V14.01,2013-07-11 07:40:00,
2013-07-11 00:41:00,50.7,46.4,30.03,NNW,338,2.0,2.0,85,0.00,,---,0.00,VWS V14.01,2013-07-11 07:41:00,
2013-07-11 00:46:00,50.7,46.4,30.03,NNW,338,2.2,3.4,85,0.00,,---,0.00,VWS V14.01,2013-07-11 07:46:00,
2013-07-11 00:50:00,50.7,46.4,30.03,NNW,338,2.0,3.4,85,0.00,,---,0.00,VWS V14.01,2013-07-11 07:50:00,
2013-07-11 00:51:00,50.7,46.4,30.03,NNW,338,1.3,2.0,85,0.00,,---,0.00,VWS V14.01,2013-07-11 07:51:00,
2013-07-11 00:56:00,50.5,46.2,30.03,NW,315,2.2,3.1,85,0.00,,---,0.00,VWS V14.01,2013-07-11 07:56:00,
2013-07-11 01:00:00,50.5,46.2,30.03,NW,315,0.0,3.1,85,0.00,,---,0.00,VWS V14.01,2013-07-11 08:00:00,
2013-07-11 01:02:00,50.4,46.0,30.03,NW,315,2.2,2.2,85,0.00,,---,0.00,VWS V14.01,2013-07-11 08:02:00,
2013-07-11 01:07:00,50.4,46.0,30.03,NW,315,2.2,2.9,85,0.00,,---,0.00,VWS V14.01,2013-07-11 08:07:00,
2013-07-11 01:10:00,50.4,46.0,30.03,NW,315,0.9,2.9,85,0.00,,---,0.00,VWS V14.01,2013-07-11 08:10:00,
2013-07-11 01:12:00,50.4,46.0,30.03,WNW,292,2.0,2.0,85,0.00,,---,0.00,VWS V14.01,2013-07-11 08:12:00,
2013-07-11 01:17:00,50.2,45.8,30.03,NW,315,1.1,2.7,85,0.00,,---,0.00,VWS V14.01,2013-07-11 08:17:00,
2013-07-11 01:20:00,50.2,46.2,30.03,WNW,292,1.6,2.7,86,0.00,,---,0.00,VWS V14.01,2013-07-11 08:20:00,
2013-07-11 01:22:00,50.2,46.2,30.03,WNW,292,0.9,1.6,86,0.00,,---,0.00,VWS V14.01,2013-07-11 08:22:00,
2013-07-11 01:27:00,50.2,46.2,30.03,WNW,292,0.0,1.6,86,0.00,,---,0.00,VWS V14.01,2013-07-11 08:27:00,
2013-07-11 01:32:00,50.0,46.0,30.03,NNW,338,1.3,2.0,86,0.00,,---,0.00,VWS V14.01,2013-07-11 08:32:00,
2013-07-11 01:37:00,49.8,45.8,30.03,NNW,338,1.3,3.1,86,0.00,,---,0.00,VWS V14.01,2013-07-11 08:37:00,
2013-07-11 01:40:00,49.8,45.8,30.03,WNW,292,1.3,3.1,86,0.00,,---,0.00,VWS V14.01,2013-07-11 08:40:00,
2013-07-11 01:42:00,49.8,45.8,30.03,NNW,338,2.9,2.9,86,0.00,,---,0.00,VWS V14.01,2013-07-11 08:42:00,
2013-07-11 01:47:00,49.8,45.8,30.00,NNW,338,2.5,3.1,86,0.00,,---,0.00,VWS V14.01,2013-07-11 08:47:00,
2013-07-11 01:50:00,49.8,45.8,30.00,WNW,292,1.6,3.1,86,0.00,,---,0.00,VWS V14.01,2013-07-11 08:50:00,
2013-07-11 01:52:00,49.8,45.8,30.00,NNW,338,1.1,1.6,86,0.00,,---,0.00,VWS V14.01,2013-07-11 08:52:00,
2013-07-11 01:58:00,49.8,45.8,30.00,NNW,338,0.0,2.5,86,0.00,,---,0.00,VWS V14.01,2013-07-11 08:58:00,
2013-07-11 02:03:00,49.6,45.6,30.00,NW,315,1.3,1.6,86,0.00,,---,0.00,VWS V14.01,2013-07-11 09:03:00,
2013-07-11 02:08:00,49.6,45.6,30.00,NW,315,2.0,2.2,86,0.00,,---,0.00,VWS V14.01,2013-07-11 09:08:00,
2013-07-11 02:13:00,49.5,45.8,30.00,NW,315,0.0,0.0,87,0.00,,---,0.00,VWS V14.01,2013-07-11 09:13:00,
2013-07-11 02:18:00,49.5,45.8,30.00,WNW,292,0.0,1.3,87,0.00,,---,0.00,VWS V14.01,2013-07-11 09:18:00,
2013-07-11 02:23:00,49.5,45.8,30.00,WNW,292,0.0,0.0,87,0.00,,---,0.00,VWS V14.01,2013-07-11 09:23:00,
2013-07-11 02:28:00,49.5,45.8,30.00,WNW,292,0.0,0.0,87,0.00,,---,0.00,VWS V14.01,2013-07-11 09:28:00,
2013-07-11 02:33:00,49.3,45.6,30.00,NW,315,0.0,0.9,87,0.00,,---,0.00,VWS V14.01,2013-07-11 09:33:00,
2013-07-11 02:38:00,49.3,45.6,30.00,NW,315,0.0,0.9,87,0.00,,---,0.00,VWS V14.01,2013-07-11 09:38:00,
2013-07-11 02:40:00,49.3,45.9,30.00,NW,315,0.0,0.9,88,0.00,,---,0.00,VWS V14.01,2013-07-11 09:40:00,
2013-07-11 02:43:00,49.3,45.9,30.00,NW,315,0.0,0.0,88,0.00,,---,0.00,VWS V14.01,2013-07-11 09:43:00,
2013-07-11 02:49:00,49.3,45.9,30.00,WNW,292,2.5,2.5,88,0.00,,---,0.00,VWS V14.01,2013-07-11 09:49:00,
2013-07-11 02:50:00,49.3,45.9,30.00,NNW,338,0.0,2.5,88,0.00,,---,0.00,VWS V14.01,2013-07-11 09:50:00,
2013-07-11 02:54:00,49.3,45.9,30.00,NNW,338,1.1,1.6,88,0.00,,---,0.00,VWS V14.01,2013-07-11 09:54:00,
2013-07-11 02:59:00,49.3,45.9,30.00,NW,315,1.3,1.6,88,0.00,,---,0.00,VWS V14.01,2013-07-11 09:59:00,
2013-07-11 03:00:00,49.3,45.9,30.00,NW,315,0.0,1.6,88,0.00,,---,0.00,VWS V14.01,2013-07-11 10:00:00,
2013-07-11 03:04:00,49.3,45.9,30.00,WNW,292,0.0,1.6,88,0.00,,---,0.00,VWS V14.01,2013-07-11 10:04:00,
2013-07-11 03:09:00,49.3,45.9,30.00,WNW,292,2.0,2.9,88,0.00,,---,0.00,VWS V14.01,2013-07-11 10:09:00,
2013-07-11 03:10:00,49.3,45.9,30.00,NNW,338,2.5,2.9,88,0.00,,---,0.00,VWS V14.01,2013-07-11 10:10:00,
2013-07-11 03:14:00,49.5,46.1,30.00,NNW,338,2.5,2.5,88,0.00,,---,0.00,VWS V14.01,2013-07-11 10:14:00,
2013-07-11 03:19:00,49.5,46.1,30.00,NNW,338,1.6,2.9,88,0.00,,---,0.00,VWS V14.01,2013-07-11 10:19:00,
2013-07-11 03:20:00,49.5,46.1,30.00,NNW,338,3.1,3.1,88,0.00,,---,0.00,VWS V14.01,2013-07-11 10:20:00,
2013-07-11 03:24:00,49.5,46.1,30.00,NW,315,1.1,3.1,88,0.00,,---,0.00,VWS V14.01,2013-07-11 10:24:00,
2013-07-11 03:29:00,49.5,46.1,30.00,NNW,338,0.0,3.1,88,0.00,,---,0.00,VWS V14.01,2013-07-11 10:29:00,
2013-07-11 03:30:00,49.5,46.1,30.00,NNW,338,1.3,3.1,88,0.00,,---,0.00,VWS V14.01,2013-07-11 10:30:00,
2013-07-11 03:34:00,49.5,46.1,30.00,NNW,338,0.9,2.0,88,0.00,,---,0.00,VWS V14.01,2013-07-11 10:34:00,
2013-07-11 03:40:00,49.5,46.1,30.00,WNW,292,2.7,2.7,88,0.00,,---,0.00,VWS V14.01,2013-07-11 10:40:00,
2013-07-11 03:45:00,49.5,46.1,30.00,NW,315,2.2,2.7,88,0.00,,---,0.00,VWS V14.01,2013-07-11 10:45:00,
2013-07-11 03:50:00,49.5,46.1,30.00,NNW,338,2.2,3.4,88,0.00,,---,0.00,VWS V14.01,2013-07-11 10:50:00,
2013-07-11 03:55:00,49.5,46.1,30.00,NW,315,2.0,3.1,88,0.00,,---,0.00,VWS V14.01,2013-07-11 10:55:00,
2013-07-11 04:00:00,49.6,46.2,30.00,WNW,292,0.0,0.0,88,0.00,,---,0.00,VWS V14.01,2013-07-11 11:00:00,
2013-07-11 04:05:00,49.6,46.2,30.00,NNW,338,2.7,3.4,88,0.00,,---,0.00,VWS V14.01,2013-07-11 11:05:00,
2013-07-11 04:10:00,49.8,46.4,30.00,NE,45,2.2,2.2,88,0.00,,---,0.00,VWS V14.01,2013-07-11 11:10:00,
2013-07-11 04:15:00,49.8,46.4,30.00,North,0,1.6,3.1,88,0.00,,---,0.00,VWS V14.01,2013-07-11 11:15:00,
2013-07-11 04:20:00,49.8,46.4,30.00,NNW,338,1.6,1.6,88,0.00,,---,0.00,VWS V14.01,2013-07-11 11:20:00,
2013-07-11 04:25:00,49.8,46.4,30.00,NNW,338,0.9,2.7,88,0.00,,---,0.00,VWS V14.01,2013-07-11 11:25:00,
2013-07-11 04:30:00,49.8,46.4,30.00,NNW,338,2.9,2.9,88,0.00,,---,0.00,VWS V14.01,2013-07-11 11:30:00,
2013-07-11 04:31:00,49.8,46.4,30.00,NNW,338,2.7,2.9,88,0.00,,---,0.00,VWS V14.01,2013-07-11 11:31:00,
2013-07-11 04:36:00,49.6,46.2,30.00,NW,315,5.6,5.6,88,0.00,,---,0.00,VWS V14.01,2013-07-11 11:36:00,
2013-07-11 04:40:00,49.6,46.2,30.00,NW,315,2.0,5.6,88,0.00,,---,0.00,VWS V14.01,2013-07-11 11:40:00,
2013-07-11 04:41:00,49.6,46.2,30.00,NW,315,2.0,2.0,88,0.00,,---,0.00,VWS V14.01,2013-07-11 11:41:00,
2013-07-11 04:46:00,49.5,46.1,30.00,NNW,338,0.0,2.7,88,0.00,,---,0.00,VWS V14.01,2013-07-11 11:46:00,
2013-07-11 04:50:00,49.5,46.1,30.00,NNW,338,2.0,2.7,88,0.00,,---,0.00,VWS V14.01,2013-07-11 11:50:00,
2013-07-11 04:51:00,49.5,46.1,30.00,NW,315,1.6,2.0,88,0.00,,---,0.00,VWS V14.01,2013-07-11 11:51:00,
2013-07-11 04:56:00,49.5,46.1,30.00,WNW,292,0.0,2.0,88,0.00,,---,0.00,VWS V14.01,2013-07-11 11:56:00,
2013-07-11 05:00:00,49.5,46.4,30.00,WNW,292,0.0,2.0,89,0.00,,---,0.00,VWS V14.01,2013-07-11 12:00:00,
2013-07-11 05:01:00,49.3,45.9,30.00,WNW,292,0.0,0.0,88,0.00,,---,0.00,VWS V14.01,2013-07-11 12:01:00,
2013-07-11 05:06:00,49.1,45.7,30.00,WNW,292,0.0,0.0,88,0.00,,---,0.00,VWS V14.01,2013-07-11 12:06:00,
2013-07-11 05:10:00,48.9,45.8,30.00,WNW,292,0.0,0.0,89,0.00,,---,0.00,VWS V14.01,2013-07-11 12:10:00,
2013-07-11 05:11:00,48.9,45.8,30.00,WNW,292,0.0,0.0,89,0.00,,---,0.00,VWS V14.01,2013-07-11 12:11:00,
2013-07-11 05:16:00,48.9,45.8,30.00,WNW,292,0.0,0.0,89,0.00,,---,0.00,VWS V14.01,2013-07-11 12:16:00,
2013-07-11 05:20:00,48.9,45.8,30.00,WNW,292,0.0,0.0,89,0.00,,---,0.00,VWS V14.01,2013-07-11 12:20:00,
2013-07-11 05:22:00,48.7,45.7,30.00,WNW,292,0.0,0.0,89,0.00,,---,0.00,VWS V14.01,2013-07-11 12:22:00,
2013-07-11 05:27:00,48.7,45.7,30.00,WNW,292,1.3,3.6,89,0.00,,---,0.00,VWS V14.01,2013-07-11 12:27:00,
2013-07-11 05:30:00,48.9,45.8,30.00,NNW,338,1.6,3.6,89,0.00,,---,0.00,VWS V14.01,2013-07-11 12:30:00,
2013-07-11 05:32:00,48.9,45.8,30.00,NNW,338,2.2,2.7,89,0.00,,---,0.00,VWS V14.01,2013-07-11 12:32:00,
2013-07-11 05:37:00,49.1,46.0,30.00,North,0,2.9,4.0,89,0.00,,---,0.00,VWS V14.01,2013-07-11 12:37:00,
2013-07-11 05:40:00,49.3,46.2,30.00,WNW,292,2.7,4.3,89,0.00,,---,0.00,VWS V14.01,2013-07-11 12:40:00,
2013-07-11 05:42:00,49.3,46.2,30.00,NNW,338,2.0,3.6,89,0.00,,---,0.00,VWS V14.01,2013-07-11 12:42:00,
2013-07-11 05:47:00,49.5,46.4,30.03,WNW,292,2.2,4.0,89,0.00,,---,0.00,VWS V14.01,2013-07-11 12:47:00,
2013-07-11 05:50:00,49.5,46.4,30.03,WNW,292,3.1,4.0,89,0.00,,---,0.00,VWS V14.01,2013-07-11 12:50:00,
2013-07-11 05:52:00,49.3,46.2,30.03,NNW,338,2.0,3.1,89,0.00,,---,0.00,VWS V14.01,2013-07-11 12:52:00,
2013-07-11 05:57:00,49.5,46.4,30.03,NNW,338,2.0,3.4,89,0.00,,---,0.00,VWS V14.01,2013-07-11 12:57:00,
2013-07-11 06:00:00,49.5,46.4,30.03,NW,315,0.0,3.4,89,0.00,,---,0.00,VWS V14.01,2013-07-11 13:00:00,
2013-07-11 06:03:00,49.5,46.7,30.03,NNW,338,2.9,3.1,90,0.00,,---,0.00,VWS V14.01,2013-07-11 13:03:00,
2013-07-11 06:08:00,49.3,46.5,30.03,WNW,292,1.1,3.6,90,0.00,,---,0.00,VWS V14.01,2013-07-11 13:08:00,
2013-07-11 06:10:00,49.3,46.5,30.03,WNW,292,3.1,3.6,90,0.00,,---,0.00,VWS V14.01,2013-07-11 13:10:00,
2013-07-11 06:13:00,49.3,46.5,30.03,WNW,292,0.0,3.1,90,0.00,,---,0.00,VWS V14.01,2013-07-11 13:13:00,
2013-07-11 06:18:00,49.3,46.5,30.03,WNW,292,0.0,3.1,90,0.00,,---,0.00,VWS V14.01,2013-07-11 13:18:00,
2013-07-11 06:20:00,49.3,46.5,30.03,WNW,292,0.0,3.1,90,0.00,,---,0.00,VWS V14.01,2013-07-11 13:20:00,
2013-07-11 06:24:00,49.3,46.5,30.03,WNW,292,0.0,2.0,90,0.00,,---,0.00,VWS V14.01,2013-07-11 13:24:00,
2013-07-11 06:29:00,49.3,46.5,30.03,WNW,292,0.0,2.0,90,0.00,,---,0.00,VWS V14.01,2013-07-11 13:29:00,
2013-07-11 06:30:00,49.3,46.5,30.03,WNW,292,1.1,2.0,90,0.00,,---,0.00,VWS V14.01,2013-07-11 13:30:00,
2013-07-11 06:34:00,49.3,46.8,30.03,NW,315,1.3,2.0,91,0.00,,---,0.00,VWS V14.01,2013-07-11 13:34:00,
2013-07-11 06:40:00,49.3,46.8,30.03,NW,315,1.1,2.0,91,0.00,,---,0.00,VWS V14.01,2013-07-11 13:40:00,
2013-07-11 06:45:00,49.5,47.0,30.03,NW,315,0.0,1.3,91,0.00,,---,0.00,VWS V14.01,2013-07-11 13:45:00,
2013-07-11 06:50:00,49.6,47.1,30.03,NW,315,0.0,1.3,91,0.00,,---,0.00,VWS V14.01,2013-07-11 13:50:00,
2013-07-11 06:56:00,49.8,47.3,30.03,NW,315,0.0,0.0,91,0.00,,---,0.00,VWS V14.01,2013-07-11 13:56:00,
2013-07-11 07:00:00,49.8,47.3,30.03,NW,315,0.0,0.0,91,0.00,,---,0.00,VWS V14.01,2013-07-11 14:00:00,
2013-07-11 07:01:00,50.0,47.5,30.03,NW,315,0.0,0.0,91,0.00,,---,0.00,VWS V14.01,2013-07-11 14:01:00,
2013-07-11 07:07:00,50.2,47.7,30.03,NW,315,0.0,0.0,91,0.00,,---,0.00,VWS V14.01,2013-07-11 14:07:00,
2013-07-11 07:10:00,50.2,47.7,30.03,NW,315,0.0,0.0,91,0.00,,---,0.00,VWS V14.01,2013-07-11 14:10:00,
2013-07-11 07:13:00,50.5,48.0,30.03,NNW,338,0.0,0.0,91,0.00,,---,0.00,VWS V14.01,2013-07-11 14:13:00,
2013-07-11 07:18:00,50.9,48.7,30.03,NW,315,1.3,2.0,92,0.00,,---,0.00,VWS V14.01,2013-07-11 14:18:00,
2013-07-11 07:20:00,51.1,48.8,30.03,NW,315,2.5,2.5,92,0.00,,---,0.00,VWS V14.01,2013-07-11 14:20:00,
2013-07-11 07:26:00,51.3,49.0,30.03,NNW,338,1.1,3.4,92,0.00,,---,0.00,VWS V14.01,2013-07-11 14:26:00,
2013-07-11 07:30:00,51.6,49.4,30.03,WNW,292,2.7,3.4,92,0.00,,---,0.00,VWS V14.01,2013-07-11 14:30:00,
2013-07-11 07:31:00,51.6,49.4,30.03,NNW,338,3.6,3.6,92,0.00,,---,0.00,VWS V14.01,2013-07-11 14:31:00,
2013-07-11 07:36:00,52.0,49.4,30.03,NNW,338,2.5,3.6,91,0.00,,---,0.00,VWS V14.01,2013-07-11 14:36:00,
2013-07-11 07:40:00,52.2,49.6,30.03,NNW,338,2.7,3.6,91,0.00,,---,0.00,VWS V14.01,2013-07-11 14:40:00,
2013-07-11 07:42:00,52.2,49.6,30.03,NNW,338,3.1,3.1,91,0.00,,---,0.00,VWS V14.01,2013-07-11 14:42:00,
2013-07-11 07:47:00,52.5,50.0,30.03,NNW,338,1.3,3.8,91,0.00,,---,0.00,VWS V14.01,2013-07-11 14:47:00,
2013-07-11 07:50:00,52.7,50.2,30.03,NNW,338,2.7,3.8,91,0.00,,---,0.00,VWS V14.01,2013-07-11 14:50:00,
2013-07-11 07:52:00,52.9,50.3,30.03,NW,315,4.3,4.3,91,0.00,,---,0.00,VWS V14.01,2013-07-11 14:52:00,
2013-07-11 07:57:00,53.1,50.2,30.03,WNW,292,1.6,4.3,90,0.00,,---,0.00,VWS V14.01,2013-07-11 14:57:00,
2013-07-11 08:00:00,53.1,50.2,30.03,NNW,338,2.5,4.3,90,0.00,,---,0.00,VWS V14.01,2013-07-11 15:00:00,
2013-07-11 08:02:00,53.1,50.2,30.03,NNW,338,2.7,2.7,90,0.00,,---,0.00,VWS V14.01,2013-07-11 15:02:00,
2013-07-11 08:08:00,53.1,50.2,30.03,NW,315,1.6,3.1,90,0.00,,---,0.00,VWS V14.01,2013-07-11 15:08:00,
2013-07-11 08:10:00,53.1,50.2,30.03,NW,315,2.2,3.1,90,0.00,,---,0.00,VWS V14.01,2013-07-11 15:10:00,
2013-07-11 08:14:00,53.2,50.1,30.03,NW,315,3.6,3.6,89,0.00,,---,0.00,VWS V14.01,2013-07-11 15:14:00,
2013-07-11 08:19:00,53.2,50.1,30.03,WNW,292,2.5,6.3,89,0.00,,---,0.00,VWS V14.01,2013-07-11 15:19:00,
2013-07-11 08:20:00,53.2,50.1,30.03,WNW,292,2.5,6.3,89,0.00,,---,0.00,VWS V14.01,2013-07-11 15:20:00,
2013-07-11 08:24:00,53.2,49.8,30.03,WNW,292,2.7,5.8,88,0.00,,---,0.00,VWS V14.01,2013-07-11 15:24:00,
2013-07-11 08:30:00,53.2,49.8,30.03,NNW,338,2.9,5.8,88,0.00,,---,0.00,VWS V14.01,2013-07-11 15:30:00,
2013-07-11 08:35:00,53.6,49.8,30.03,WNW,292,3.4,5.8,87,0.00,,---,0.00,VWS V14.01,2013-07-11 15:35:00,
2013-07-11 08:40:00,53.8,50.0,30.03,NW,315,2.7,2.7,87,0.00,,---,0.00,VWS V14.01,2013-07-11 15:40:00,
2013-07-11 08:46:00,54.1,50.0,30.03,WNW,292,2.0,4.0,86,0.00,,---,0.00,VWS V14.01,2013-07-11 15:46:00,
2013-07-11 08:50:00,54.3,50.2,30.03,WNW,292,4.7,4.7,86,0.00,,---,0.00,VWS V14.01,2013-07-11 15:50:00,
2013-07-11 08:51:00,54.3,49.9,30.03,NW,315,0.9,4.7,85,0.00,,---,0.00,VWS V14.01,2013-07-11 15:51:00,
2013-07-11 08:56:00,54.7,50.3,30.03,WNW,292,2.2,4.7,85,0.00,,---,0.00,VWS V14.01,2013-07-11 15:56:00,
2013-07-11 09:00:00,54.9,50.1,30.03,NNE,22,3.8,4.7,84,0.00,,---,0.00,VWS V14.01,2013-07-11 16:00:00,
2013-07-11 09:02:00,55.0,50.3,30.03,NNW,338,3.4,4.7,84,0.00,,---,0.00,VWS V14.01,2013-07-11 16:02:00,
2013-07-11 09:07:00,55.2,50.5,30.03,NNW,338,3.1,5.4,84,0.00,,---,0.00,VWS V14.01,2013-07-11 16:07:00,
2013-07-11 09:10:00,55.6,50.5,30.03,NNW,338,2.9,5.4,83,0.00,,---,0.00,VWS V14.01,2013-07-11 16:10:00,
2013-07-11 09:12:00,55.8,50.7,30.03,NW,315,4.3,4.3,83,0.00,,---,0.00,VWS V14.01,2013-07-11 16:12:00,
2013-07-11 09:18:00,56.7,51.2,30.03,WNW,292,3.1,5.6,82,0.00,,---,0.00,VWS V14.01,2013-07-11 16:18:00,
2013-07-11 09:20:00,56.7,51.2,30.03,NNE,22,4.9,5.6,82,0.00,,---,0.00,VWS V14.01,2013-07-11 16:20:00,
2013-07-11 09:23:00,56.8,50.7,30.03,NNW,338,3.6,5.6,80,0.00,,---,0.00,VWS V14.01,2013-07-11 16:23:00,
2013-07-11 09:28:00,57.2,50.1,30.03,NNW,338,3.1,6.0,77,0.00,,---,0.00,VWS V14.01,2013-07-11 16:28:00,
2013-07-11 09:30:00,57.2,49.7,30.03,NNW,338,4.0,6.0,76,0.00,,---,0.00,VWS V14.01,2013-07-11 16:30:00,
2013-07-11 09:33:00,57.4,49.9,30.03,North,0,4.3,4.3,76,0.00,,---,0.00,VWS V14.01,2013-07-11 16:33:00,
2013-07-11 09:39:00,57.6,49.7,30.03,NNW,338,5.6,6.9,75,0.00,,---,0.00,VWS V14.01,2013-07-11 16:39:00,
2013-07-11 09:40:00,57.6,49.0,30.03,NNE,22,3.1,6.9,73,0.00,,---,0.00,VWS V14.01,2013-07-11 16:40:00,
2013-07-11 09:44:00,57.7,49.2,30.03,NNW,338,8.7,8.7,73,0.00,,---,0.00,VWS V14.01,2013-07-11 16:44:00,
2013-07-11 09:49:00,57.9,48.6,30.03,NNW,338,2.2,8.7,71,0.00,,---,0.00,VWS V14.01,2013-07-11 16:49:00,
2013-07-11 09:50:00,57.9,48.6,30.03,NNE,22,4.7,8.7,71,0.00,,---,0.00,VWS V14.01,2013-07-11 16:50:00,
2013-07-11 09:54:00,57.7,47.3,30.03,NW,315,4.3,6.5,68,0.00,,---,0.00,VWS V14.01,2013-07-11 16:54:00,
2013-07-11 10:00:00,57.2,46.4,30.03,NW,315,3.8,8.1,67,0.00,,---,0.00,VWS V14.01,2013-07-11 17:00:00,
2013-07-11 10:05:00,57.6,46.7,30.03,NNW,338,3.8,7.4,67,0.00,,---,0.00,VWS V14.01,2013-07-11 17:05:00,
2013-07-11 10:10:00,57.9,47.0,30.03,NNW,338,6.0,7.6,67,0.00,,---,0.00,VWS V14.01,2013-07-11 17:10:00,
2013-07-11 10:16:00,58.1,47.2,30.03,WNW,292,8.1,8.5,67,0.00,,---,0.00,VWS V14.01,2013-07-11 17:16:00,
2013-07-11 10:20:00,57.9,46.6,30.03,WNW,292,6.0,8.5,66,0.00,,---,0.00,VWS V14.01,2013-07-11 17:20:00,
2013-07-11 10:21:00,58.1,46.8,30.03,NNW,338,5.6,6.5,66,0.00,,---,0.00,VWS V14.01,2013-07-11 17:21:00,
2013-07-11 10:26:00,58.1,46.8,30.03,WNW,292,5.8,6.5,66,0.00,,---,0.00,VWS V14.01,2013-07-11 17:26:00,
2013-07-11 10:30:00,58.3,47.0,30.03,North,0,4.9,6.5,66,0.00,,---,0.00,VWS V14.01,2013-07-11 17:30:00,
2013-07-11 10:32:00,58.3,47.0,30.03,WNW,292,4.9,4.9,66,0.00,,---,0.00,VWS V14.01,2013-07-11 17:32:00,
2013-07-11 10:37:00,58.1,46.0,30.03,NNW,338,6.5,7.2,64,0.00,,---,0.00,VWS V14.01,2013-07-11 17:37:00,
2013-07-11 10:40:00,58.3,46.2,30.03,NNW,338,2.7,7.2,64,0.00,,---,0.00,VWS V14.01,2013-07-11 17:40:00,
2013-07-11 10:43:00,58.5,46.3,30.03,NNW,338,8.1,8.1,64,0.00,,---,0.00,VWS V14.01,2013-07-11 17:43:00,
2013-07-11 10:48:00,58.8,45.8,30.03,NNW,338,9.4,9.4,62,0.00,,---,0.00,VWS V14.01,2013-07-11 17:48:00,
2013-07-11 10:50:00,58.8,45.8,30.03,WNW,292,6.5,9.4,62,0.00,,---,0.00,VWS V14.01,2013-07-11 17:50:00,
2013-07-11 10:55:00,59.0,44.3,30.03,WNW,292,6.5,6.5,58,0.00,,---,0.00,VWS V14.01,2013-07-11 17:55:00,
2013-07-11 11:00:00,59.2,44.0,30.03,NNW,338,7.8,7.8,57,0.00,,---,0.00,VWS V14.01,2013-07-11 18:00:00,
2013-07-11 11:06:00,58.5,43.3,30.03,NNW,338,5.6,9.4,57,0.00,,---,0.00,VWS V14.01,2013-07-11 18:06:00,
2013-07-11 11:10:00,58.5,43.8,30.03,WNW,292,4.0,9.4,58,0.00,,---,0.00,VWS V14.01,2013-07-11 18:10:00,
2013-07-11 11:12:00,58.5,43.3,30.03,WNW,292,5.4,6.5,57,0.00,,---,0.00,VWS V14.01,2013-07-11 18:12:00,
2013-07-11 11:17:00,58.1,43.0,30.03,WNW,292,6.5,8.1,57,0.00,,---,0.00,VWS V14.01,2013-07-11 18:17:00,
2013-07-11 11:20:00,58.3,43.6,30.03,NNW,338,7.8,8.1,58,0.00,,---,0.00,VWS V14.01,2013-07-11 18:20:00,
2013-07-11 11:22:00,58.3,43.6,30.03,NNW,338,3.8,7.8,58,0.00,,---,0.00,VWS V14.01,2013-07-11 18:22:00,
2013-07-11 11:28:00,58.1,43.9,30.03,NNW,338,3.8,7.8,59,0.00,,---,0.00,VWS V14.01,2013-07-11 18:28:00,
2013-07-11 11:30:00,57.9,43.7,30.03,NW,315,5.6,7.8,59,0.00,,---,0.00,VWS V14.01,2013-07-11 18:30:00,
2013-07-11 11:33:00,57.7,44.0,30.03,WNW,292,6.3,7.6,60,0.00,,---,0.00,VWS V14.01,2013-07-11 18:33:00,
2013-07-11 11:39:00,57.6,44.7,30.03,WNW,292,6.5,7.6,62,0.00,,---,0.00,VWS V14.01,2013-07-11 18:39:00,
2013-07-11 11:40:00,57.6,44.7,30.03,WNW,292,6.5,7.6,62,0.00,,---,0.00,VWS V14.01,2013-07-11 18:40:00,
2013-07-11 11:44:00,57.6,44.7,30.03,WNW,292,4.0,9.2,62,0.00,,---,0.00,VWS V14.01,2013-07-11 18:44:00,
2013-07-11 11:50:00,57.6,45.1,30.03,WNW,292,3.1,9.2,63,0.00,,---,0.00,VWS V14.01,2013-07-11 18:50:00,
2013-07-11 11:55:00,57.7,45.7,30.03,WNW,292,4.7,7.4,64,0.00,,---,0.00,VWS V14.01,2013-07-11 18:55:00,
2013-07-11 12:00:00,57.9,45.4,30.03,NNW,338,3.8,7.4,63,0.00,,---,0.00,VWS V14.01,2013-07-11 19:00:00,
2013-07-11 12:06:00,58.1,45.2,30.03,NNW,338,3.8,7.6,62,0.00,,---,0.00,VWS V14.01,2013-07-11 19:06:00,
2013-07-11 12:10:00,58.6,45.7,30.03,West,270,3.6,7.6,62,0.00,,---,0.00,VWS V14.01,2013-07-11 19:10:00,
2013-07-11 12:11:00,59.0,46.0,30.03,NNW,338,2.7,3.6,62,0.00,,---,0.00,VWS V14.01,2013-07-11 19:11:00,
2013-07-11 12:16:00,58.8,45.0,30.03,NNW,338,6.0,9.8,60,0.00,,---,0.00,VWS V14.01,2013-07-11 19:16:00,
2013-07-11 12:20:00,59.0,45.2,30.03,NW,315,5.4,9.8,60,0.00,,---,0.00,VWS V14.01,2013-07-11 19:20:00,
2013-07-11 12:22:00,59.2,44.9,30.03,WNW,292,3.1,5.4,59,0.00,,---,0.00,VWS V14.01,2013-07-11 19:22:00,
2013-07-11 12:27:00,59.4,44.1,30.03,NW,315,6.3,6.3,57,0.00,,---,0.00,VWS V14.01,2013-07-11 19:27:00,
2013-07-11 12:30:00,59.4,44.1,30.03,NW,315,6.3,6.3,57,0.00,,---,0.00,VWS V14.01,2013-07-11 19:30:00,
2013-07-11 12:33:00,59.4,44.1,30.03,NNW,338,5.8,6.3,57,0.00,,---,0.00,VWS V14.01,2013-07-11 19:33:00,
2013-07-11 12:39:00,59.2,43.5,30.03,WNW,292,6.3,8.1,56,0.00,,---,0.00,VWS V14.01,2013-07-11 19:39:00,
2013-07-11 12:40:00,59.2,43.5,30.03,East,90,4.0,8.1,56,0.00,,---,0.00,VWS V14.01,2013-07-11 19:40:00,
2013-07-11 12:44:00,59.2,44.0,30.03,North,0,3.8,11.0,57,0.00,,---,0.00,VWS V14.01,2013-07-11 19:44:00,
2013-07-11 12:50:00,59.0,43.8,30.03,NNW,338,6.3,11.0,57,0.00,,---,0.00,VWS V14.01,2013-07-11 19:50:00,
2013-07-11 12:56:00,59.0,44.3,30.03,NNW,338,6.0,6.0,58,0.00,,---,0.00,VWS V14.01,2013-07-11 19:56:00,
2013-07-11 13:00:00,59.2,44.4,30.03,WNW,292,2.2,8.1,58,0.00,,---,0.00,VWS V14.01,2013-07-11 20:00:00,
2013-07-11 13:01:00,59.4,45.0,30.03,North,0,5.6,5.6,59,0.00,,---,0.00,VWS V14.01,2013-07-11 20:01:00,
2013-07-11 13:06:00,59.0,43.8,30.03,WNW,292,3.6,7.8,57,0.00,,---,0.00,VWS V14.01,2013-07-11 20:06:00,
2013-07-11 13:10:00,59.0,43.8,30.03,WNW,292,6.5,10.7,57,0.00,,---,0.00,VWS V14.01,2013-07-11 20:10:00,
2013-07-11 13:12:00,59.0,43.8,30.03,NNW,338,2.5,6.5,57,0.00,,---,0.00,VWS V14.01,2013-07-11 20:12:00,
2013-07-11 13:17:00,59.4,44.1,30.00,NW,315,6.5,6.5,57,0.00,,---,0.00,VWS V14.01,2013-07-11 20:17:00,
2013-07-11 13:20:00,59.4,44.1,30.00,SW,225,4.9,7.4,57,0.00,,---,0.00,VWS V14.01,2013-07-11 20:20:00,
2013-07-11 13:22:00,59.5,43.8,30.00,NNE,22,7.8,7.8,56,0.00,,---,0.00,VWS V14.01,2013-07-11 20:22:00,
2013-07-11 13:28:00,59.5,43.4,30.00,NNW,338,5.8,7.8,55,0.00,,---,0.00,VWS V14.01,2013-07-11 20:28:00,
2013-07-11 13:30:00,59.5,43.8,30.00,WNW,292,4.9,7.8,56,0.00,,---,0.00,VWS V14.01,2013-07-11 20:30:00,
2013-07-11 13:34:00,59.5,43.4,30.00,WNW,292,6.0,13.6,55,0.00,,---,0.00,VWS V14.01,2013-07-11 20:34:00,
2013-07-11 13:40:00,59.7,43.5,30.00,WNW,292,4.3,13.6,55,0.00,,---,0.00,VWS V14.01,2013-07-11 20:40:00,
2013-07-11 13:45:00,59.4,43.2,30.00,WNW,292,8.5,8.5,55,0.00,,---,0.00,VWS V14.01,2013-07-11 20:45:00,
2013-07-11 13:50:00,59.7,44.0,30.00,NW,315,4.0,4.0,56,0.00,,---,0.00,VWS V14.01,2013-07-11 20:50:00,
2013-07-11 13:56:00,59.4,43.7,30.00,WNW,292,6.9,10.5,56,0.00,,---,0.00,VWS V14.01,2013-07-11 20:56:00,
2013-07-11 14:00:00,59.5,43.8,30.00,NW,315,5.8,10.5,56,0.00,,---,0.00,VWS V14.01,2013-07-11 21:00:00,
2013-07-11 14:01:00,59.7,44.5,30.00,WNW,292,3.8,5.8,57,0.00,,---,0.00,VWS V14.01,2013-07-11 21:01:00,
2013-07-11 14:06:00,59.7,44.0,30.00,NNW,338,5.8,5.8,56,0.00,,---,0.00,VWS V14.01,2013-07-11 21:06:00,
2013-07-11 14:10:00,59.7,44.5,30.00,NNW,338,8.7,8.7,57,0.00,,---,0.00,VWS V14.01,2013-07-11 21:10:00,
2013-07-11 14:11:00,59.7,44.0,30.00,NNW,338,5.6,8.7,56,0.00,,---,0.00,VWS V14.01,2013-07-11 21:11:00,
2013-07-11 14:16:00,59.9,44.7,30.00,WNW,292,9.2,9.2,57,0.00,,---,0.00,VWS V14.01,2013-07-11 21:16:00,
2013-07-11 14:20:00,59.7,44.5,30.00,NNW,338,11.9,11.9,57,0.00,,---,0.00,VWS V14.01,2013-07-11 21:20:00,
2013-07-11 14:22:00,59.9,45.1,30.00,ESE,112,4.3,11.9,58,0.00,,---,0.00,VWS V14.01,2013-07-11 21:22:00,
2013-07-11 14:27:00,59.7,44.5,30.00,WNW,292,5.8,11.9,57,0.00,,---,0.00,VWS V14.01,2013-07-11 21:27:00,
2013-07-11 14:30:00,59.7,44.5,30.00,WNW,292,3.6,11.9,57,0.00,,---,0.00,VWS V14.01,2013-07-11 21:30:00,
2013-07-11 14:33:00,59.7,44.5,30.00,NNW,338,4.0,7.8,57,0.00,,---,0.00,VWS V14.01,2013-07-11 21:33:00,
2013-07-11 14:38:00,59.9,45.1,30.00,NNW,338,4.9,9.8,58,0.00,,---,0.00,VWS V14.01,2013-07-11 21:38:00,
2013-07-11 14:40:00,59.9,45.1,30.00,WNW,292,5.4,9.8,58,0.00,,---,0.00,VWS V14.01,2013-07-11 21:40:00,
2013-07-11 14:43:00,59.7,44.9,30.00,NNE,22,3.4,7.8,58,0.00,,---,0.00,VWS V14.01,2013-07-11 21:43:00,
2013-07-11 14:49:00,59.9,45.5,30.00,WNW,292,4.3,12.3,59,0.00,,---,0.00,VWS V14.01,2013-07-11 21:49:00,
2013-07-11 14:50:00,59.9,45.5,30.00,NW,315,3.1,12.3,59,0.00,,---,0.00,VWS V14.01,2013-07-11 21:50:00,
2013-07-11 14:54:00,59.9,45.5,30.00,North,0,7.2,7.2,59,0.00,,---,0.00,VWS V14.01,2013-07-11 21:54:00,
2013-07-11 14:59:00,59.9,45.5,30.00,WNW,292,8.1,12.1,59,0.00,,---,0.00,VWS V14.01,2013-07-11 21:59:00,
2013-07-11 15:00:00,59.9,45.5,30.00,NNW,338,8.1,12.1,59,0.00,,---,0.00,VWS V14.01,2013-07-11 22:00:00,
2013-07-11 15:05:00,60.1,45.7,30.00,WNW,292,6.5,8.7,59,0.00,,---,0.00,VWS V14.01,2013-07-11 22:05:00,
2013-07-11 15:10:00,60.3,46.3,30.00,NNE,22,4.3,6.7,60,0.00,,---,0.00,VWS V14.01,2013-07-11 22:10:00,
2013-07-11 15:16:00,60.1,45.7,30.00,NNW,338,6.0,7.8,59,0.00,,---,0.00,VWS V14.01,2013-07-11 22:16:00,
2013-07-11 15:20:00,60.1,45.3,30.00,NNW,338,5.6,9.6,58,0.00,,---,0.00,VWS V14.01,2013-07-11 22:20:00,
2013-07-11 15:21:00,60.1,45.3,30.00,NW,315,6.0,6.0,58,0.00,,---,0.00,VWS V14.01,2013-07-11 22:21:00,
2013-07-11 16:15:00,61.3,43.6,30.00,North,0,4.7,4.7,52,0.00,,---,0.00,VWS V14.01,2013-07-11 23:15:00,
2013-07-11 16:20:00,61.3,43.6,30.00,NNW,338,10.5,10.5,52,0.00,,---,0.00,VWS V14.01,2013-07-11 23:20:00,
2013-07-11 16:25:00,61.3,43.1,30.00,NNW,338,9.6,10.5,51,0.00,,---,0.00,VWS V14.01,2013-07-11 23:25:00,
2013-07-11 16:30:00,61.2,42.9,30.00,NNW,338,6.5,6.5,51,0.00,,---,0.00,VWS V14.01,2013-07-11 23:30:00,
2013-07-11 16:35:00,61.0,42.7,29.97,NNW,338,5.6,7.2,51,0.00,,---,0.00,VWS V14.01,2013-07-11 23:35:00,
2013-07-11 16:40:00,61.2,43.4,29.97,NNW,338,4.3,7.2,52,0.00,,---,0.00,VWS V14.01,2013-07-11 23:40:00,
2013-07-11 16:41:00,61.2,43.4,29.97,NNW,338,8.7,8.7,52,0.00,,---,0.00,VWS V14.01,2013-07-11 23:41:00,
2013-07-11 16:46:00,61.0,42.7,29.97,WNW,292,8.1,9.0,51,0.00,,---,0.00,VWS V14.01,2013-07-11 23:46:00,
2013-07-11 16:50:00,61.2,43.4,29.97,NNE,22,8.1,13.4,52,0.00,,---,0.00,VWS V14.01,2013-07-11 23:50:00,
2013-07-11 16:51:00,61.3,43.6,29.97,NNW,338,6.0,8.1,52,0.00,,---,0.00,VWS V14.01,2013-07-11 23:51:00,
2013-07-11 16:57:00,61.0,43.2,29.97,WNW,292,9.4,9.6,52,0.00,,---,0.00,VWS V14.01,2013-07-11 23:57:00,
2013-07-11 17:00:00,61.2,43.4,29.97,NNW,338,5.6,9.6,52,0.00,,---,0.00,VWS V14.01,2013-07-12 00:00:00,
2013-07-11 17:02:00,61.2,43.4,29.97,NNW,338,8.5,8.5,52,0.00,,---,0.00,VWS V14.01,2013-07-12 00:02:00,
2013-07-11 17:07:00,61.3,43.6,29.97,WNW,292,6.3,10.7,52,0.00,,---,0.00,VWS V14.01,2013-07-12 00:07:00,
2013-07-11 17:10:00,61.3,43.6,29.97,NW,315,10.5,10.7,52,0.00,,---,0.00,VWS V14.01,2013-07-12 00:10:00,
2013-07-11 17:12:00,61.3,43.6,29.97,NNW,338,7.6,10.5,52,0.00,,---,0.00,VWS V14.01,2013-07-12 00:12:00,
2013-07-11 17:17:00,61.2,42.9,29.97,NNW,338,11.9,11.9,51,0.00,,---,0.00,VWS V14.01,2013-07-12 00:17:00,
2013-07-11 17:20:00,61.0,42.7,29.97,WNW,292,8.1,11.9,51,0.00,,---,0.00,VWS V14.01,2013-07-12 00:20:00,
2013-07-11 17:22:00,61.0,42.7,29.97,WNW,292,8.7,9.4,51,0.00,,---,0.00,VWS V14.01,2013-07-12 00:22:00,
2013-07-11 17:28:00,61.2,42.9,29.97,North,0,4.0,9.4,51,0.00,,---,0.00,VWS V14.01,2013-07-12 00:28:00,
2013-07-11 17:30:00,61.3,43.1,29.97,NNW,338,6.0,9.4,51,0.00,,---,0.00,VWS V14.01,2013-07-12 00:30:00,
2013-07-11 17:33:00,61.3,43.1,29.97,NNW,338,5.4,6.0,51,0.00,,---,0.00,VWS V14.01,2013-07-12 00:33:00,
2013-07-11 17:38:00,61.7,43.4,29.97,NNW,338,6.0,8.1,51,0.00,,---,0.00,VWS V14.01,2013-07-12 00:38:00,
2013-07-11 17:40:00,61.7,42.9,29.97,WNW,292,8.1,8.1,50,0.00,,---,0.00,VWS V14.01,2013-07-12 00:40:00,
2013-07-11 17:43:00,61.7,42.9,29.97,NW,315,4.0,8.7,50,0.00,,---,0.00,VWS V14.01,2013-07-12 00:43:00,
2013-07-11 17:48:00,61.5,42.2,29.97,North,0,10.1,10.1,49,0.00,,---,0.00,VWS V14.01,2013-07-12 00:48:00,
2013-07-11 17:50:00,61.5,42.2,29.97,WNW,292,5.6,10.1,49,0.00,,---,0.00,VWS V14.01,2013-07-12 00:50:00,
2013-07-11 17:54:00,61.5,42.7,29.97,WNW,292,6.0,6.0,50,0.00,,---,0.00,VWS V14.01,2013-07-12 00:54:00,
2013-07-11 17:59:00,61.7,42.9,29.97,WNW,292,5.4,8.1,50,0.00,,---,0.00,VWS V14.01,2013-07-12 00:59:00,
2013-07-11 18:00:00,61.3,42.0,29.97,WNW,292,5.4,8.1,49,0.00,,---,0.00,VWS V14.01,2013-07-12 01:00:00,
2013-07-11 18:04:00,61.2,42.4,29.97,WNW,292,3.4,8.1,50,0.00,,---,0.00,VWS V14.01,2013-07-12 01:04:00,
2013-07-11 18:09:00,61.9,43.1,29.97,NNW,338,6.3,8.1,50,0.00,,---,0.00,VWS V14.01,2013-07-12 01:09:00,
2013-07-11 18:10:00,61.5,42.2,29.97,NNW,338,6.3,8.1,49,0.00,,---,0.00,VWS V14.01,2013-07-12 01:10:00,
2013-07-11 18:15:00,61.9,43.1,29.97,NNW,338,2.7,7.6,50,0.00,,---,0.00,VWS V14.01,2013-07-12 01:15:00,
2013-07-11 18:20:00,62.2,43.4,29.97,NW,315,4.3,7.6,50,0.00,,---,0.00,VWS V14.01,2013-07-12 01:20:00,
2013-07-11 18:25:00,61.5,42.2,29.97,NNW,338,4.0,9.6,49,0.00,,---,0.00,VWS V14.01,2013-07-12 01:25:00,
2013-07-11 18:30:00,61.3,42.0,29.97,WNW,292,6.5,9.6,49,0.00,,---,0.00,VWS V14.01,2013-07-12 01:30:00,
2013-07-11 18:35:00,61.2,42.4,29.97,North,0,6.3,8.1,50,0.00,,---,0.00,VWS V14.01,2013-07-12 01:35:00,
2013-07-11 18:40:00,61.3,43.1,29.97,NNW,338,7.8,7.8,51,0.00,,---,0.00,VWS V14.01,2013-07-12 01:40:00,
2013-07-11 18:47:00,60.6,42.4,29.94,NNW,338,9.8,9.8,51,0.00,,---,0.00,VWS V14.01,2013-07-12 01:47:00,
2013-07-11 18:50:00,60.8,42.6,29.94,WNW,292,5.8,9.8,51,0.00,,---,0.00,VWS V14.01,2013-07-12 01:50:00,
2013-07-11 18:52:00,61.0,43.2,29.94,NW,315,2.0,6.5,52,0.00,,---,0.00,VWS V14.01,2013-07-12 01:52:00,
2013-07-11 18:57:00,60.8,43.1,29.94,WNW,292,4.7,6.9,52,0.00,,---,0.00,VWS V14.01,2013-07-12 01:57:00,
2013-07-11 19:00:00,61.0,43.2,29.94,NNW,338,5.8,6.9,52,0.00,,---,0.00,VWS V14.01,2013-07-12 02:00:00,
2013-07-11 19:03:00,60.4,42.8,29.94,NNW,338,4.3,8.5,52,0.00,,---,0.00,VWS V14.01,2013-07-12 02:03:00,
2013-07-11 19:09:00,60.3,43.1,29.94,NNW,338,6.5,10.7,53,0.00,,---,0.00,VWS V14.01,2013-07-12 02:09:00,
2013-07-11 19:10:00,60.3,43.1,29.94,North,0,3.1,10.7,53,0.00,,---,0.00,VWS V14.01,2013-07-12 02:10:00,
2013-07-11 19:14:00,60.3,43.6,29.94,West,270,5.6,7.2,54,0.00,,---,0.00,VWS V14.01,2013-07-12 02:14:00,
2013-07-11 19:19:00,60.8,44.1,29.94,WNW,292,4.3,8.1,54,0.00,,---,0.00,VWS V14.01,2013-07-12 02:19:00,
2013-07-11 19:20:00,60.8,44.1,29.94,NNW,338,7.4,8.1,54,0.00,,---,0.00,VWS V14.01,2013-07-12 02:20:00,
2013-07-11 19:25:00,60.8,43.6,29.94,WNW,292,4.0,7.4,53,0.00,,---,0.00,VWS V14.01,2013-07-12 02:25:00,
2013-07-11 19:30:00,60.6,44.4,29.94,NNW,338,2.9,7.4,55,0.00,,---,0.00,VWS V14.01,2013-07-12 02:30:00,
2013-07-11 19:31:00,60.6,44.4,29.94,WNW,292,4.0,4.0,55,0.00,,---,0.00,VWS V14.01,2013-07-12 02:31:00,
2013-07-11 19:36:00,61.0,43.8,29.94,NNW,338,3.1,7.6,53,0.00,,---,0.00,VWS V14.01,2013-07-12 02:36:00,
2013-07-11 19:40:00,61.0,43.2,29.94,NNE,22,4.9,7.6,52,0.00,,---,0.00,VWS V14.01,2013-07-12 02:40:00,
2013-07-11 19:41:00,61.0,43.8,29.94,WNW,292,2.0,4.9,53,0.00,,---,0.00,VWS V14.01,2013-07-12 02:41:00,
2013-07-11 19:46:00,60.6,43.4,29.94,NNW,338,5.4,6.5,53,0.00,,---,0.00,VWS V14.01,2013-07-12 02:46:00,
2013-07-11 19:50:00,59.9,42.7,29.94,NNW,338,4.0,6.5,53,0.00,,---,0.00,VWS V14.01,2013-07-12 02:50:00,
2013-07-11 19:51:00,59.9,43.2,29.94,NW,315,3.4,4.0,54,0.00,,---,0.00,VWS V14.01,2013-07-12 02:51:00,
2013-07-11 19:56:00,59.0,42.9,29.94,WNW,292,4.9,5.6,55,0.00,,---,0.00,VWS V14.01,2013-07-12 02:56:00,
2013-07-11 20:00:00,58.3,42.2,29.94,WNW,292,1.6,5.6,55,0.00,,---,0.00,VWS V14.01,2013-07-12 03:00:00,
2013-07-11 20:01:00,58.3,42.7,29.94,NNW,338,5.8,5.8,56,0.00,,---,0.00,VWS V14.01,2013-07-12 03:01:00,
2013-07-11 20:07:00,57.4,42.7,29.94,WNW,292,1.6,5.8,58,0.00,,---,0.00,VWS V14.01,2013-07-12 03:07:00,
2013-07-11 20:10:00,57.2,42.6,29.94,WNW,292,5.6,5.8,58,0.00,,---,0.00,VWS V14.01,2013-07-12 03:10:00,
2013-07-11 20:12:00,56.8,43.5,29.94,WNW,292,2.7,5.6,61,0.00,,---,0.00,VWS V14.01,2013-07-12 03:12:00,
2013-07-11 20:17:00,56.3,43.5,29.94,NNW,338,3.1,6.3,62,0.00,,---,0.00,VWS V14.01,2013-07-12 03:17:00,
2013-07-11 20:20:00,56.3,43.9,29.94,NNW,338,2.7,6.3,63,0.00,,---,0.00,VWS V14.01,2013-07-12 03:20:00,
2013-07-11 20:22:00,55.9,44.0,29.94,WNW,292,3.6,3.6,64,0.00,,---,0.00,VWS V14.01,2013-07-12 03:22:00,
2013-07-11 20:27:00,55.8,44.2,29.94,NNW,338,6.9,6.9,65,0.00,,---,0.00,VWS V14.01,2013-07-12 03:27:00,
2013-07-11 20:30:00,55.6,44.4,29.94,NNW,338,2.9,6.9,66,0.00,,---,0.00,VWS V14.01,2013-07-12 03:30:00,
2013-07-11 20:32:00,55.4,44.2,29.94,NW,315,2.7,2.9,66,0.00,,---,0.00,VWS V14.01,2013-07-12 03:32:00,
2013-07-11 20:38:00,55.0,44.7,29.94,WNW,292,3.1,3.6,68,0.00,,---,0.00,VWS V14.01,2013-07-12 03:38:00,
2013-07-11 20:40:00,55.0,44.7,29.94,NNW,338,3.1,4.9,68,0.00,,---,0.00,VWS V14.01,2013-07-12 03:40:00,
2013-07-11 20:43:00,54.9,44.5,29.94,WNW,292,2.5,4.9,68,0.00,,---,0.00,VWS V14.01,2013-07-12 03:43:00,
2013-07-11 20:48:00,54.5,44.5,29.94,NNW,338,2.0,6.7,69,0.00,,---,0.00,VWS V14.01,2013-07-12 03:48:00,
2013-07-11 20:50:00,54.5,44.9,29.94,WNW,292,2.7,6.7,70,0.00,,---,0.00,VWS V14.01,2013-07-12 03:50:00,
2013-07-11 20:54:00,54.5,44.9,29.94,WNW,292,2.5,4.3,70,0.00,,---,0.00,VWS V14.01,2013-07-12 03:54:00,
2013-07-11 20:59:00,54.3,44.8,29.94,NW,315,3.4,4.3,70,0.00,,---,0.00,VWS V14.01,2013-07-12 03:59:00,
2013-07-11 21:00:00,54.1,45.0,29.94,NW,315,2.9,4.3,71,0.00,,---,0.00,VWS V14.01,2013-07-12 04:00:00,
2013-07-11 21:01:00,54.1,45.0,29.94,NNW,338,1.3,2.9,71,0.00,,---,0.00,VWS V14.01,2013-07-12 04:01:00,
2013-07-11 21:02:00,54.0,44.8,29.94,NNW,338,1.3,2.9,71,0.00,,---,0.00,VWS V14.01,2013-07-12 04:02:00,
2013-07-11 21:04:00,54.0,44.8,29.94,NW,315,2.9,2.9,71,0.00,,---,0.00,VWS V14.01,2013-07-12 04:04:00,
2013-07-11 21:05:00,54.0,44.8,29.94,NW,315,1.3,2.9,71,0.00,,---,0.00,VWS V14.01,2013-07-12 04:05:00,
2013-07-11 21:10:00,53.8,44.6,29.94,NW,315,2.2,2.9,71,0.00,,---,0.00,VWS V14.01,2013-07-12 04:10:00,
2013-07-11 21:15:00,53.8,44.6,29.94,WNW,292,2.7,4.0,71,0.00,,---,0.00,VWS V14.01,2013-07-12 04:15:00,
2013-07-11 21:20:00,53.4,44.6,29.97,NW,315,1.1,4.7,72,0.00,,---,0.00,VWS V14.01,2013-07-12 04:20:00,
2013-07-11 21:25:00,53.4,44.6,29.97,NW,315,0.0,2.7,72,0.00,,---,0.00,VWS V14.01,2013-07-12 04:25:00,
2013-07-11 21:30:00,53.2,44.5,29.97,NW,315,1.6,2.7,72,0.00,,---,0.00,VWS V14.01,2013-07-12 04:30:00,
2013-07-11 21:35:00,53.2,44.8,29.97,NW,315,2.0,2.9,73,0.00,,---,0.00,VWS V14.01,2013-07-12 04:35:00,
2013-07-11 21:40:00,53.1,44.7,29.97,NW,315,3.1,3.1,73,0.00,,---,0.00,VWS V14.01,2013-07-12 04:40:00,
2013-07-11 21:45:00,53.1,44.7,29.97,WNW,292,2.9,3.4,73,0.00,,---,0.00,VWS V14.01,2013-07-12 04:45:00,
2013-07-11 21:50:00,53.1,45.0,29.97,NNW,338,1.3,3.4,74,0.00,,---,0.00,VWS V14.01,2013-07-12 04:50:00,
2013-07-11 21:55:00,52.9,44.8,29.97,WNW,292,2.7,2.9,74,0.00,,---,0.00,VWS V14.01,2013-07-12 04:55:00,
2013-07-11 22:00:00,52.9,44.8,29.97,NNW,338,1.1,2.9,74,0.00,,---,0.00,VWS V14.01,2013-07-12 05:00:00,
2013-07-11 22:05:00,52.9,45.2,29.97,WNW,292,3.1,3.1,75,0.00,,---,0.00,VWS V14.01,2013-07-12 05:05:00,
2013-07-11 22:10:00,52.9,45.2,29.97,WNW,292,2.0,2.0,75,0.00,,---,0.00,VWS V14.01,2013-07-12 05:10:00,
2013-07-11 22:15:00,52.9,45.5,29.97,NNW,338,2.9,2.9,76,0.00,,---,0.00,VWS V14.01,2013-07-12 05:15:00,
2013-07-11 22:20:00,52.7,45.4,29.97,WNW,292,0.9,1.6,76,0.00,,---,0.00,VWS V14.01,2013-07-12 05:20:00,
2013-07-11 22:25:00,52.7,45.4,29.97,NNW,338,2.5,3.1,76,0.00,,---,0.00,VWS V14.01,2013-07-12 05:25:00,
2013-07-11 22:30:00,52.7,45.7,29.97,NW,315,2.7,3.6,77,0.00,,---,0.00,VWS V14.01,2013-07-12 05:30:00,
2013-07-11 22:35:00,52.7,46.0,29.97,WNW,292,2.2,4.7,78,0.00,,---,0.00,VWS V14.01,2013-07-12 05:35:00,
2013-07-11 22:40:00,52.5,45.9,29.97,NNW,338,2.5,2.5,78,0.00,,---,0.00,VWS V14.01,2013-07-12 05:40:00,
2013-07-11 22:45:00,52.5,46.2,29.97,WNW,292,2.5,2.9,79,0.00,,---,0.00,VWS V14.01,2013-07-12 05:45:00,
2013-07-11 22:50:00,52.5,46.2,29.97,WNW,292,2.5,2.5,79,0.00,,---,0.00,VWS V14.01,2013-07-12 05:50:00,
2013-07-11 22:55:00,52.3,46.0,29.97,WNW,292,2.7,3.6,79,0.00,,---,0.00,VWS V14.01,2013-07-12 05:55:00,
2013-07-11 23:00:00,52.3,46.0,29.97,WNW,292,2.5,3.6,79,0.00,,---,0.00,VWS V14.01,2013-07-12 06:00:00,
2013-07-11 23:05:00,52.2,45.8,29.97,NNW,338,4.3,4.3,79,0.00,,---,0.00,VWS V14.01,2013-07-12 06:05:00,
2013-07-11 23:10:00,52.2,45.8,29.97,NNW,338,2.9,2.9,79,0.00,,---,0.00,VWS V14.01,2013-07-12 06:10:00,
2013-07-11 23:15:00,52.0,46.0,29.97,NNW,338,0.0,2.9,80,0.00,,---,0.00,VWS V14.01,2013-07-12 06:15:00,
2013-07-11 23:20:00,52.0,46.0,29.97,NNW,338,2.5,2.5,80,0.00,,---,0.00,VWS V14.01,2013-07-12 06:20:00,
2013-07-11 23:25:00,51.8,46.2,29.97,NNW,338,1.6,3.8,81,0.00,,---,0.00,VWS V14.01,2013-07-12 06:25:00,
2013-07-11 23:30:00,51.6,46.0,29.97,NNW,338,1.1,2.0,81,0.00,,---,0.00,VWS V14.01,2013-07-12 06:30:00,
2013-07-11 23:35:00,51.6,46.0,29.97,NW,315,2.2,2.2,81,0.00,,---,0.00,VWS V14.01,2013-07-12 06:35:00,
2013-07-11 23:40:00,51.6,46.3,29.97,NW,315,2.9,2.9,82,0.00,,---,0.00,VWS V14.01,2013-07-12 06:40:00,
2013-07-11 23:45:00,51.6,46.3,29.97,NNW,338,2.2,3.6,82,0.00,,---,0.00,VWS V14.01,2013-07-12 06:45:00,
2013-07-11 23:50:00,51.6,46.3,29.97,NNW,338,0.0,0.0,82,0.00,,---,0.00,VWS V14.01,2013-07-12 06:50:00,
2013-07-11 23:56:00,51.6,46.6,29.97,WNW,292,2.7,3.6,83,0.00,,---,0.00,VWS V14.01,2013-07-12 06:56:00,